Showing default

ITASAT, 43786

Orbit data source: Space-Track

ITASAT, 43786 is a payload satellite owned by ITA (BR) in SSO that was launched on Mon, 03 Dec 2018 UTC via an FALCON 9 launch vehicle from the Air Force Western Test Range (AFWTR). Payload-class satellites include a variety of spacecraft equipped with specific instruments for various scientific and technological missions. These include communications satellites like Starlink; space stations such as the ISS; scientific satellites like the Hubble; Earth observation satellites from companies like Planet Labs, Umbra, and HawkEye 360; GPS; miniature CubeSats for education and research; and military/defense satellites.

Loading next visibility...
Identifier
43786, 2018-099AE
Orbit
SSO
Country
Flag of UnknownUnknown / BRAZ
Related business
Manufacturer
ITA
Mission
Operational Civil Technology
Bus & Motor
CUBESAT 6U, Unknown motor
Mass
8 kg wet, 8 kg dry
Launch date (UTC)
2018-12-03 (7 years ago)
Launch vehicle
FALCON 9
Launch site
Air Force Western Test Range (AFWTR)
Object type
Payload
Rocket body
Debris
Shape & HBR
Box, 0.1 m
Radar Cross Section
0.080 m², Medium (>0.1 m² and < 1m²)

Expand to show TLE details & history
Last TLE update: 16 hours ago

TLE from 16 hours ago
0 ITASAT
1 43786U 18099AE  25242.66638249  .00009244  00000-0  51364-3 0  9995
2 43786  97.4494 295.2140 0012297 283.0823  76.9035 15.13859187368877
Epoch: 2025-08-30T15:59Z
TLE epoch observation values (Epoch: 2025-08-30T15:59:35.447Z)
Latitude
-0.00009°
Longitude
76.21891°
Altitude
525.611 km
Speed
7.601 km/s
True Right ascension
19h 40m 51s
True Declination
0° 00' 00"
Sunlit
Object was in full shadow at epoch
Visualization orbit readout
Latitude
Unknown
Longitude
Unknown
Altitude
Unknown
Speed
Unknown
Apparent Right ascension
Unknown
Apparent Declination
Unknown
Sunlit
N/A
Visualization observer readout
Local Sidereal Time
23:53:02
Azimuth
Unknown
Elevation
Unknown
Doppler factor
Unknown
Orbital elements
Apogee altitude
529.904 km
Perigee altitude
512.936 km
Semi-major axis
6,899.557 km
Eccentricity
0.00123
Inclination
97.4494°
RAAN
295.214°
Arg. of periapsis
283.0823°
True anomaly
77.0408°
Mean anomaly
76.9035°
Eccentric anomaly
76.97214°
Mean motion
3.78714 °/min
Orbital period
95.06 mins
BSTAR
0.00051364
Loading maneuver chart data...
Computing Atmospheric mass density...
Loading historical data...
Loading historical data...
Loading historical data...
Loading historical data...
Loading historical data...
Loading historical data...
Loading historical data...

Documentation

Showing up to 5 results
|